#timestamp,LO_Frequency,Hit 
1501390815.2,286047006.0,N
1501390835.1,286047003.2,N
1501390836.0,286047003.2,N
1501390855.8,286047003.3,N
1501390875.6,286047004.4,N
1501390895.5,286047001.6,N
1501390915.3,286047000.2,N
1501390935.1,286047002.5,N
1501390955.8,286047005.9,N
1501390975.7,286047003.0,N
1501390995.5,286047003.2,N
1501391015.3,286047007.6,N
1501391035.1,286047004.9,N
1501391036.0,286047004.9,N
1501391055.8,286047006.3,N
1501391075.6,286047004.7,N
1501391095.5,286047002.9,N
1501391115.3,286047003.5,N
1501391135.1,286047006.7,N
1501391155.9,286047006.8,N
1501391175.7,286047009.1,N
1501391195.5,286047007.8,N
1501391215.3,286047010.5,N
1501391235.2,286047009.1,N
1501391255.0,286047009.1,N
1501391255.9,286047009.1,N
1501391275.7,286047004.7,N
1501391295.6,286047008.8,N
1501391315.4,286047007.4,N
1501391335.2,286047006.2,N
1501391355.1,286047004.6,N
1501391356.0,286047004.6,N
1501391375.8,286047004.7,N
1501391395.6,286047006.0,N
1501391415.5,286047003.2,N
1501391435.3,286047006.2,N
1501391455.1,286047006.6,N
1501391475.9,286047008.9,N
1501391495.7,286047008.8,N
1501391515.5,286047006.8,N
1501391535.3,286047006.1,N
1501391555.2,286047008.4,N
1501391575.0,286047009.2,N
1501391575.9,286047009.2,N
1501391595.8,286047006.9,N
1501391615.6,286047008.8,N
1501391635.4,286047008.7,N
1501391655.3,286047007.7,N
1501391675.1,286047006.1,N
1501391676.0,286047006.1,N
1501391695.8,286047004.9,N
1501391715.7,286047005.3,N
1501391735.5,286047004.9,N
1501391755.3,286047007.2,N
1501391775.1,286047008.9,N
1501391795.9,286047008.0,N
1501391815.7,286047007.8,N
1501391835.5,286047006.6,N
1501391855.4,286047006.6,N
1501391875.2,286047007.3,N
1501391895.0,286047007.1,N
1501391895.9,286047007.1,N
1501391915.8,286047005.1,N
1501391935.6,286047005.5,N
1501391955.4,286047006.9,N
1501391975.3,286047005.7,N
1501391995.1,286047003.9,N
1501391996.0,286047003.9,N
1501392015.8,286047004.0,N
1501392035.7,286047004.3,N
1501392055.5,286047001.4,N
1501392075.3,286047002.5,N
1501392095.1,286047003.9,N
1501392115.9,286047004.6,N
1501392135.7,286047005.0,N
1501392155.5,286047005.3,N
1501392175.4,286047004.4,N
1501392195.2,286047001.8,N
1501392215.0,286047001.4,N
1501392215.9,286047001.4,N
1501392235.8,286047004.2,N
1501392255.6,286047001.5,N
1501392275.4,286047005.3,N
1501392295.3,286047004.9,N
1501392315.1,286047005.7,N
1501392316.0,286047005.7,N
1501392335.8,286047003.6,N
1501392355.7,286047002.6,N
1501392375.5,286047000.6,N
1501392395.3,286047002.3,N
1501392415.1,286047002.0,N
1501392435.9,286047004.3,N
1501392455.7,286047001.5,N
1501392475.5,286047003.5,N
1501392495.4,286047003.3,N
1501392515.2,286047003.4,N
1501392535.0,286047002.0,N
1501392535.9,286047002.0,N
1501392555.8,286047004.2,N
1501392575.6,286047003.2,N
1501392595.4,286047003.0,N
1501392615.3,286047003.1,N
1501392635.1,286047005.3,N
1501392636.0,286047005.3,N
1501392655.8,286047001.8,N
1501392675.7,286047002.4,N
1501392695.5,286047001.3,N
1501392715.3,286047001.6,N
1501392735.2,286047000.2,N
1501392755.9,286047000.3,N
1501392775.7,286047002.8,N
1501392795.6,286047002.3,N
1501392815.4,286047002.3,N
1501392835.2,286047001.6,N
1501392855.3,286047001.4,N
1501392875.1,286047002.0,N
1501392895.8,286047001.7,N
1501392915.7,286047001.7,N
1501392935.5,286047002.0,N
1501392955.3,286046999.9,N
1501392975.2,286047002.4,N
1501392995.9,286047001.9,N
1501393015.7,286047000.3,N
1501393035.6,286047005.7,N
1501393055.4,286047001.6,N
1501393075.2,286047003.4,N
1501393095.1,286047003.6,N
1501393096.0,286047003.6,N
1501393115.8,286047006.0,N
1501393135.6,286047003.3,N
1501393155.5,286047003.3,N
1501393175.3,286047005.3,N
1501393195.1,286047003.4,N
1501393215.9,286047005.8,N
1501393235.7,286047001.7,N
1501393255.5,286047002.5,N
1501393275.3,286047002.7,N
1501393295.2,286047000.7,N
1501393315.0,286046999.3,N
1501393315.9,286046999.3,N
1501393335.7,286046998.5,N
1501393355.6,286047001.1,N
1501393375.4,286046998.1,N
1501393395.2,286046996.5,N
1501393415.1,286046997.1,N
1501393416.0,286046997.1,N
1501393435.8,286046997.4,N
1501393455.6,286046997.6,N
1501393475.5,286046995.3,N
1501393495.3,286046996.9,N
1501393515.0,286046997.4,N
1501393515.9,286046997.4,N
1501393535.8,286046993.4,N
1501393555.6,286046993.6,N
1501393575.4,286046996.0,N
1501393595.3,286046997.9,N
1501393615.1,286046995.4,N
1501393616.0,286046995.4,N
1501393635.8,286046995.0,N
1501393655.7,286046993.8,N
1501393675.5,286046991.7,N
1501393695.3,286046997.9,N
1501393715.1,286046995.7,N
1501393735.9,286046993.5,N
1501393755.7,286046995.3,N
1501393775.5,286046999.0,N
1501393795.4,286046996.9,N
1501393815.2,286046995.9,N
1501393835.0,286046995.8,N
1501393835.9,286046995.8,N
1501393855.8,286046996.7,N
1501393875.6,286046996.3,N
1501393895.4,286046994.5,N
1501393915.3,286046994.8,N
1501393935.1,286046994.5,N
1501393936.0,286046994.5,N
1501393955.8,286046996.3,N
1501393975.7,286046995.6,N
1501393995.5,286046999.3,N
1501394015.3,286047001.1,N
1501394035.2,286047000.8,N
1501394055.9,286046999.9,N
1501394075.7,286047001.0,N
1501394095.5,286046999.8,N
1501394115.4,286046999.7,N
1501394135.2,286046998.5,N
1501394155.0,286047001.2,N
1501394155.9,286047001.2,N
1501394175.8,286046998.8,N
1501394195.6,286047000.6,N
1501394215.4,286046999.8,N
1501394235.3,286047000.0,N
1501394255.1,286046998.9,N
1501394275.8,286046998.0,N
1501394295.7,286046999.3,N
1501394315.5,286047000.1,N
1501394335.3,286047001.4,N
1501394355.2,286047001.7,N
1501394375.9,286047003.3,N
1501394395.7,286047006.0,N
